Location: Arles � Bouc Canal
(43.5595°N, 4.7253°E)
Time: 12:20:30
(UTC+00:00)

Daily predictions for brighter satellites

Satellite Brightness Start Highest point End
(mag) Time Altitude Azimuth Time Altitude Azimuth Time Altitude Azimuth
Cosmos 1727 Rocket 4.3 19:17:07 10° N 19:23:20 53° ENE 19:29:30 10° SSE
Cosmos 1151 Rocket 4.2 19:23:32 10° NNW 19:27:37 46° W 19:31:41 10° SSW
Cosmos 1656 4.1 19:22:28 10° NNW 19:27:43 45° ENE 19:33:00 10° SE
Cosmos 1633 2.8 19:26:26 10° SSW 19:29:57 70° W 19:33:29 10° N
Resurs 01 Rocket 2.6 19:28:14 10° SE 19:32:07 31° ENE 19:36:02 10° N
Cosmos 972 Rocket 4.0 19:29:25 10° NNW 19:34:24 60° ENE 19:39:13 10° SSE
Cosmos 1441 Rocket 4.1 19:33:53 10° SSE 19:37:13 29° E 19:40:32 10° NNE
Cosmos 614 Rocket 4.4 19:35:52 10° S 19:40:39 41° ESE 19:45:32 10° NE
Cosmos 1900 4.3 19:38:57 10° SSW 19:43:52 84° ESE 19:48:54 10° NNE
MONITOR-E 3.6 19:44:42 10° S 19:47:03 76° WSW 19:49:27 10° NNW
IRIDIUM 103 4.5 19:43:53 10° SSE 19:48:57 56° E 19:54:04 10° NNE
USA 267 3.3 19:43:01 10° NE 19:49:32 64° SE 19:56:00 10° SW
Cosmos 1821 Rocket 4.2 19:45:12 10° SSE 19:51:04 50° E 19:57:02 10° NNE
COSMOS 2406 3.2 19:47:14 10° SSW 19:52:55 67° ESE 19:58:38 10° NNE
Shenzhou-11 Module 1.2 19:51:38 10° W 19:54:00 74° S 19:55:30 19° E
Cosmos 1743 Rocket 4.1 19:49:48 10° SSW 19:54:12 64° W 19:58:39 10° N
CZ-2C R/B 3.6 19:52:50 10° NNE 19:57:29 74° ESE 20:01:59 10° S
Intercosmos 25 3.6 19:54:43 10° N 19:58:58 47° ENE 20:01:25 16° SSE
Lacrosse 5 4.1 19:56:32 10° NW 20:00:10 19° N 20:03:49 10° ENE
Cosmos 1862 3.3 19:58:23 10° S 20:02:26 84° E 20:06:31 10° N
Sich 1 3.2 19:59:03 10° S 20:03:20 53° E 20:07:41 10° NNE
Cosmos 2369 4.2 19:58:25 10° NNW 20:03:56 45° ENE 20:08:05 17° SE
SJ-6B 4.3 20:00:58 10° SSW 20:04:45 37° W 20:08:32 10° NNW
IRIDIUM 106 4.3 20:02:01 10° S 20:07:14 82° E 20:12:28 10° N
BREEZE-M DEB (TANK) 4.0 20:04:23 10° W 20:07:34 27° NNW 20:09:25 10° NE
Cosmos 2082 Rocket 2.8 20:03:02 10° S 20:08:09 36° ESE 20:13:17 10° NE
Meteor 2-6 Rocket 4.3 20:02:42 10° NNW 20:08:12 78° W 20:13:50 10° S
Cosmos 1818 3.8 20:03:03 10° NNW 20:08:29 61° NE 20:12:24 19° SE
Cosmos 2123 Rocket 4.4 20:07:56 10° N 20:13:52 44° ENE 20:18:06 19° SE
Spot 2 Rocket 4.0 20:11:25 18° SE 20:14:46 42° ENE 20:19:35 10° N
Cosmos 1000 Rocket 4.5 20:11:07 10° N 20:17:24 76° E 20:23:05 13° SSE
Resurs 1-3 4.2 20:14:08 10° S 20:18:26 57° W 20:22:47 10° NNW
Cosmos 2239 Rocket 4.4 20:14:15 10° S 20:20:20 73° E 20:26:29 10° NNE
Cosmos 2322 Rocket 4.4 20:18:09 10° NNE 20:20:27 12° NE 20:22:44 10° ENE
Cosmos 1190 Rocket 4.1 20:15:49 10° S 20:20:56 56° ESE 20:26:08 10° NNE
Cosmos 1184 Rocket 4.1 20:21:02 23° E 20:21:02 23° E 20:23:42 10° NE
Meteor 1-4 Rocket 3.3 20:18:14 10° N 20:21:26 34° ENE 20:22:26 28° ESE
Terra 3.6 20:21:08 14° E 20:23:00 18° ENE 20:26:08 10° NNE
Cosmos 407 Rocket 3.4 20:18:33 10° SSW 20:23:51 74° ESE 20:29:09 10° NNE
USA 234 3.7 20:18:46 15° ESE 20:24:05 55° NNE 20:30:26 10° NW
Cosmos 1666 Rocket 3.5 20:21:28 15° S 20:24:56 60° E 20:29:13 10° NNE
CZ-2C R/B 3.9 20:20:16 10° N 20:25:06 41° WNW 20:29:56 10° SW
SL-8 R/B 3.9 20:21:26 10° WNW 20:26:12 60° SSW 20:28:49 26° SE
Cosmos 1238 Rocket 4.3 20:28:02 14° ENE 20:28:02 14° ENE 20:28:59 10° NE
MetOp-B 4.1 20:25:45 19° SSE 20:29:41 77° ENE 20:35:03 10° N
Meteor 1-27 Rocket 3.8 20:26:23 10° N 20:32:21 85° E 20:36:53 18° SSE
USA 238 DEB 4.0 20:30:36 10° S 20:36:40 40° ESE 20:42:56 10° NE
USA 238 4.0 20:30:45 10° S 20:36:47 40° ESE 20:43:02 10° NE
SPOT 5 3.7 20:35:54 24° E 20:37:10 28° ENE 20:40:52 10° N
BREEZE-M DEB (TANK) 3.3 20:34:15 10° WNW 20:38:00 24° SW 20:39:00 20° SSW
SPOT 1/Viking Rocket 3.6 20:39:53 28° SE 20:42:35 62° ENE 20:47:45 10° N
Cosmos 1980 Rocket 2.4 20:38:51 10° NNW 20:44:27 56° ENE 20:47:05 30° SE
OE (NEXTSAT) 4.5 20:41:31 10° WNW 20:44:58 57° SSW 20:45:31 49° SSE
SL-4 R/B 1.8 20:43:05 10° WSW 20:47:04 82° NNW 20:50:46 10° ENE
BREEZE-M DEB (TANK) 3.6 20:45:58 10° WNW 20:48:40 42° N 20:55:14 10° ENE
Cosmos 405 Rocket 3.8 20:49:21 26° ENE 20:49:21 26° ENE 20:51:57 10° NNE
Cosmos 1140 Rocket 3.5 20:44:17 10° SSW 20:49:31 86° WNW 20:54:49 10° NNE
Genesis I 3.9 20:46:07 10° NNW 20:49:49 41° NE 20:50:44 35° E
ATLAS 5 CENTAUR R/B 3.3 20:47:23 10° NW 20:52:57 43° WSW 20:57:17 19° S
USA 32 4.0 20:53:02 30° SSE 20:55:38 68° E 21:00:51 10° N
Cosmos 1633 Rocket 3.2 20:55:05 19° SSW 20:58:13 72° W 21:02:39 10° N
Cosmos 1833 Rocket 3.4 20:53:17 10° SW 20:58:46 55° WNW 21:04:19 10° NNE
Cosmos 1697 Rocket 3.0 20:54:37 10° NNW 21:00:09 62° WSW 21:03:04 28° S
Cosmos 1867 3.4 20:59:45 10° SSW 21:05:10 83° ESE 21:10:40 10° NE
CENTAUR R/B 2.9 21:04:46 35° ESE 21:05:16 36° ESE 21:11:16 10° NE
Meteor 1-18 Rocket 4.5 21:02:52 10° N 21:08:20 50° ENE 21:09:49 40° ESE
Okean 1-7 4.0 21:04:36 10° NNE 21:08:28 30° ENE 21:08:30 30° ENE
Resurs 01 Rocket 3.5 21:05:06 11° SSW 21:08:36 26° W 21:12:20 10° NW
Landsat 7 4.3 21:08:59 30° SSW 21:11:11 57° W 21:15:54 10° NNW
FALCON 9 DEB 3.5 21:09:18 10° WSW 21:12:46 63° NNW 21:15:21 17° NE
Cosmos 676 Rocket 4.1 21:14:02 15° SSW 21:18:25 77° WNW 21:23:48 10° NNE
IGS 5A 4.5 21:17:35 29° SW 21:19:04 41° W 21:22:59 10° NNW
Meteor 1-25 Rocket 4.1 21:17:53 32° S 21:20:37 89° W 21:26:16 10° N
Cosmos 1470 Rocket 3.7 21:19:31 42° SSW 21:20:56 74° W 21:25:21 10° N
Cosmos 192 4.2 21:16:57 10° NNW 21:21:53 84° WSW 21:22:57 55° S
ATLAS 5 CENTAUR R/B 4.0 21:19:41 10° N 21:21:58 18° NE 21:23:25 16° ENE
GP-B 4.1 21:24:28 10° NNW 21:28:40 43° W 21:30:41 26° SW
NOSS 3-2 (A) 3.3 21:25:34 10° SW 21:31:13 89° NW 21:37:41 10° NE
USA 267 4.2 21:26:11 10° NE 21:32:23 48° NNW 21:38:36 10° W
Cosmos 921 Rocket 2.8 21:30:35 10° NNW 21:34:49 81° WSW 21:34:50 81° WSW
NOSS 3-2 (C) 3.2 21:35:51 51° S 21:37:07 64° ESE 21:43:25 10° NE
ERS-1 Rocket 3.2 21:36:08 47° SSW 21:37:23 62° WSW 21:42:23 10° NNW
Cosmos 841 Rocket 4.4 21:36:40 10° N 21:41:25 34° ENE 21:42:00 33° ENE
SAR-Lupe-2 4.4 21:38:27 10° N 21:41:55 48° WNW 21:41:55 48° WNW
Cosmos 540 Rocket 4.4 21:38:11 10° N 21:42:52 33° ENE 21:43:22 32° ENE
SL-16 R/B 2.6 21:37:48 10° NNW 21:43:20 50° ENE 21:44:17 45° E
Lacrosse 5 2.7 21:39:26 10° NW 21:44:17 43° NNE 21:45:31 37° ENE
Cosmos 468 Rocket 3.9 21:39:51 10° NNW 21:45:11 77° ENE 21:45:45 68° ESE
Cosmos 1741 Rocket 3.8 21:48:23 73° SE 21:48:37 74° ESE 21:53:53 10° NNE
Cosmos 2082 Rocket 3.6 21:46:58 10° WSW 21:52:12 36° NW 21:57:26 10° N
Terra 2.1 22:00:02 56° WSW 22:00:17 57° W 22:05:00 10° NNW
Cosmos 2322 Rocket 2.3 22:00:05 10° NNW 22:05:45 61° ENE 22:06:13 58° E
Cosmos 2100 Rocket 3.8 22:05:35 65° S 22:06:36 87° E 22:12:47 10° N
USA 234 3.5 22:06:06 48° SSW 22:07:07 52° SW 22:13:29 10° WNW
Meteor 1-11 Rocket 4.2 22:09:09 47° ENE 22:09:09 47° ENE 22:14:09 10° NNE
Cosmos 1437 Rocket 4.0 22:08:09 10° NNW 22:10:50 38° NW 22:10:50 38° NW
Cosmos 1869 Rocket 4.0 22:13:01 61° NNW 22:13:01 61° NNW 22:16:47 10° N
SPOT 5 4.1 22:15:08 27° W 22:15:13 27° W 22:18:55 10° NW
Cosmos 2360 Rocket 2.8 22:14:28 10° NNW 22:19:53 43° ENE 22:20:19 43° ENE
ATLAS 3B R/B 3.0 22:21:13 44° E 22:21:13 44° E 22:26:27 10° NE
Geosat 4.0 22:20:48 74° NE 22:20:48 74° NE 22:25:39 10° NNW
Iridium 4 Rocket 3.7 22:21:44 55° NNW 22:21:44 55° NNW 22:25:11 10° N
Cosmos 2173 Rocket 4.0 22:21:11 63° SW 22:22:11 77° W 22:28:21 10° N
ALOS 2 4.1 22:27:44 29° NE 22:27:44 29° NE 22:30:42 10° N
SL-4 R/B 3.8 22:23:48 10° WNW 22:27:01 26° NNW 22:27:13 26° N
Cosmos 1725 Rocket 4.0 22:27:19 66° ESE 22:27:28 67° E 22:33:45 10° NNE
Cosmos 1980 Rocket 3.8 22:23:44 10° NW 22:28:00 22° W 22:28:51 21° WSW
Cosmos 1763 Rocket 4.1 22:26:13 10° NNW 22:31:09 49° W 22:31:09 49° W
SL-08 R/B 4.3 22:32:19 74° E 22:32:20 74° E 22:38:25 10° NNE
Cosmos 2333 Rocket 3.6 22:35:17 10° N 22:40:14 28° NE 22:41:19 27° ENE
Cosmos 2016 Rocket 3.9 22:39:51 75° SW 22:40:23 83° W 22:46:48 10° N
Cosmos 2061 Rocket 3.9 22:41:23 76° SW 22:41:48 81° W 22:48:02 10° N
Lacrosse 4 Rocket 4.0 22:45:23 13° NE 22:45:23 13° NE 22:45:59 10° NE
Meteor 1-13 Rocket 4.2 22:38:09 10° NNW 22:43:23 73° WNW 22:43:23 73° WNW
Cosmos 1459 Rocket 4.5 22:42:36 46° WSW 22:43:54 54° WNW 22:50:07 10° N
MOS 1-B Rocket 3.9 22:40:44 10° N 22:46:22 68° WNW 22:46:43 66° W
Cosmos 1733 Rocket 4.3 22:50:59 39° NNE 22:50:59 39° NNE 22:53:47 10° N
Cosmos 1864 Rocket 4.4 22:53:23 76° WSW 22:53:37 78° W 22:59:52 10° N
Cosmos 1066 Rocket 4.3 22:48:30 10° N 22:53:46 71° NNE 22:53:46 71° NNE
CENTAUR R/B 3.4 22:51:50 22° WSW 22:55:40 48° NW 23:02:34 10° NNE
Meteor 1-23 Rocket 4.3 22:50:12 10° N 22:55:43 74° NE 22:55:43 74° NE
Thor Agena Rocket 3.8 22:52:32 10° N 22:57:00 64° NNW 22:57:00 64° NNW
Cosmos 967 Rocket 4.4 22:54:49 10° NW 23:01:03 82° W 23:01:03 82° W
Cosmos 44 4.1 22:57:58 10° NW 23:01:33 47° NW 23:01:33 47° NW
Cosmos 2233 Rocket 3.9 23:14:31 84° WNW 23:14:31 84° WNW 23:20:50 10° N
SL-16 R/B 3.8 23:22:33 10° NW 23:26:08 24° W 23:26:08 24° W
Lacrosse 5 3.6 23:22:30 10° WNW 23:24:41 23° WNW 23:24:41 23° WNW
Cosmos 1833 4.5 23:28:44 63° NW 23:28:44 63° NW 23:34:00 10° NNE
Cosmos 2322 3.9 23:24:34 10° NNW 23:29:31 67° N 23:29:31 67° N
Cosmos 2219 Rocket 2.5 23:33:09 10° NNW 23:38:19 63° NNE 23:38:19 63° NNE
Cosmos 2322 Rocket 4.1 23:45:11 10° NW 23:48:01 19° W 23:48:01 19° W
CZ-2D R/B 4.4 23:52:18 10° ENE 23:54:54 13° E 23:54:54 13° E
